Year,Month,Day,Hour,Minute,Value (Times are PST for temperature in C)
2010,07,06,00,00,11.50
2010,07,06,00,01,11.50
2010,07,06,00,02,11.60
2010,07,06,00,03,11.60
2010,07,06,00,04,11.60
2010,07,06,00,05,11.60
2010,07,06,00,06,11.60
2010,07,06,00,07,11.60
2010,07,06,00,08,11.50
2010,07,06,00,09,11.50
2010,07,06,00,10,11.40
2010,07,06,00,11,11.40
2010,07,06,00,12,11.30
2010,07,06,00,13,11.30
2010,07,06,00,14,11.30
2010,07,06,00,15,11.20
2010,07,06,00,16,11.20
2010,07,06,00,17,11.10
2010,07,06,00,18,11.00
2010,07,06,00,19,10.90
2010,07,06,00,20,10.90
2010,07,06,00,21,10.80
2010,07,06,00,22,10.80
2010,07,06,00,23,10.70
2010,07,06,00,24,10.70
2010,07,06,00,25,10.60
2010,07,06,00,26,10.60
2010,07,06,00,27,10.70
2010,07,06,00,28,10.70
2010,07,06,00,29,10.80
2010,07,06,00,30,10.90
2010,07,06,00,31,11.00
2010,07,06,00,32,11.10
2010,07,06,00,33,11.20
2010,07,06,00,34,11.30
2010,07,06,00,35,11.30
2010,07,06,00,36,11.40
2010,07,06,00,37,11.40
2010,07,06,00,38,11.40
2010,07,06,00,39,11.40
2010,07,06,00,40,11.40
2010,07,06,00,41,11.40
2010,07,06,00,42,11.40
2010,07,06,00,43,11.30
2010,07,06,00,44,11.30
2010,07,06,00,45,11.30
2010,07,06,00,46,11.30
2010,07,06,00,47,11.20
2010,07,06,00,48,11.20
2010,07,06,00,49,11.20
2010,07,06,00,50,11.10
2010,07,06,00,51,11.10
2010,07,06,00,52,11.00
2010,07,06,00,53,11.00
2010,07,06,00,54,10.90
2010,07,06,00,55,10.80
2010,07,06,00,56,10.70
2010,07,06,00,57,10.60
2010,07,06,00,58,10.50
2010,07,06,00,59,10.40
2010,07,06,01,00,10.30
2010,07,06,01,01,10.30
2010,07,06,01,02,10.20
2010,07,06,01,03,10.20
2010,07,06,01,04,10.10
2010,07,06,01,05,10.00
2010,07,06,01,06,10.00
2010,07,06,01,07,9.90
2010,07,06,01,08,9.90
2010,07,06,01,09,9.80
2010,07,06,01,10,9.80
2010,07,06,01,11,9.80
2010,07,06,01,12,9.80
2010,07,06,01,13,9.70
2010,07,06,01,14,9.70
2010,07,06,01,15,9.70
2010,07,06,01,16,9.70
2010,07,06,01,17,9.60
2010,07,06,01,18,9.60
2010,07,06,01,19,9.60
2010,07,06,01,20,9.60
2010,07,06,01,21,9.60
2010,07,06,01,22,9.50
2010,07,06,01,23,9.50
2010,07,06,01,24,9.40
2010,07,06,01,25,9.40
2010,07,06,01,26,9.40
2010,07,06,01,27,9.40
2010,07,06,01,28,9.30
2010,07,06,01,29,9.30
2010,07,06,01,30,9.30
2010,07,06,01,31,9.30
2010,07,06,01,32,9.20
2010,07,06,01,33,9.20
2010,07,06,01,34,9.20
2010,07,06,01,35,9.20
2010,07,06,01,36,9.10
2010,07,06,01,37,9.10
2010,07,06,01,38,9.10
2010,07,06,01,39,9.10
2010,07,06,01,40,9.10
2010,07,06,01,41,9.10
2010,07,06,01,42,9.10
2010,07,06,01,43,9.10
2010,07,06,01,44,9.00
2010,07,06,01,45,9.00
2010,07,06,01,46,9.00
2010,07,06,01,47,9.00
2010,07,06,01,48,9.00
2010,07,06,01,49,9.00
2010,07,06,01,50,9.00
2010,07,06,01,51,9.00
2010,07,06,01,52,9.00
2010,07,06,01,53,9.00
2010,07,06,01,54,9.00
2010,07,06,01,55,9.00
2010,07,06,01,56,9.00
2010,07,06,01,57,9.00
2010,07,06,01,58,8.90
2010,07,06,01,59,8.90
2010,07,06,02,00,8.90
2010,07,06,02,01,8.90
2010,07,06,02,02,8.90
2010,07,06,02,03,8.90
2010,07,06,02,04,8.90
2010,07,06,02,05,8.90
2010,07,06,02,06,8.90
2010,07,06,02,07,8.90
2010,07,06,02,08,8.80
2010,07,06,02,09,8.80
2010,07,06,02,10,8.80
2010,07,06,02,11,8.80
2010,07,06,02,12,8.80
2010,07,06,02,13,8.80
2010,07,06,02,14,8.80
2010,07,06,02,15,8.70
2010,07,06,02,16,8.70
2010,07,06,02,17,8.70
2010,07,06,02,18,8.70
2010,07,06,02,19,8.70
2010,07,06,02,20,8.70
2010,07,06,02,21,8.70
2010,07,06,02,22,8.70
2010,07,06,02,23,8.70
2010,07,06,02,24,8.70
2010,07,06,02,25,8.60
2010,07,06,02,26,8.60
2010,07,06,02,27,8.60
2010,07,06,02,28,8.60
2010,07,06,02,29,8.60
2010,07,06,02,30,8.60
2010,07,06,02,31,8.60
2010,07,06,02,32,8.60
2010,07,06,02,33,8.60
2010,07,06,02,34,8.60
2010,07,06,02,35,8.60
2010,07,06,02,36,8.60
2010,07,06,02,37,8.60
2010,07,06,02,38,8.60
2010,07,06,02,39,8.60
2010,07,06,02,40,8.60
2010,07,06,02,41,8.60
2010,07,06,02,42,8.50
2010,07,06,02,43,8.50
2010,07,06,02,44,8.50
2010,07,06,02,45,8.50
2010,07,06,02,46,8.50
2010,07,06,02,47,8.40
2010,07,06,02,48,8.40
2010,07,06,02,49,8.40
2010,07,06,02,50,8.40
2010,07,06,02,51,8.40
2010,07,06,02,52,8.40
2010,07,06,02,53,8.40
2010,07,06,02,54,8.30
2010,07,06,02,55,8.30
2010,07,06,02,56,8.30
2010,07,06,02,57,8.30
2010,07,06,02,58,8.30
2010,07,06,02,59,8.30
2010,07,06,03,00,8.30
2010,07,06,03,01,8.30
2010,07,06,03,02,8.30
2010,07,06,03,03,8.30
2010,07,06,03,04,8.30
2010,07,06,03,05,8.30
2010,07,06,03,06,8.30
2010,07,06,03,07,8.30
2010,07,06,03,08,8.30
2010,07,06,03,09,8.20
2010,07,06,03,10,8.20
2010,07,06,03,11,8.20
2010,07,06,03,12,8.20
2010,07,06,03,13,8.20
2010,07,06,03,14,8.20
2010,07,06,03,15,8.20
2010,07,06,03,16,8.20
2010,07,06,03,17,8.20
2010,07,06,03,18,8.20
2010,07,06,03,19,8.10
2010,07,06,03,20,8.10
2010,07,06,03,21,8.10
2010,07,06,03,22,8.10
2010,07,06,03,23,8.00
2010,07,06,03,24,8.00
2010,07,06,03,25,8.00
2010,07,06,03,26,7.90
2010,07,06,03,27,7.90
2010,07,06,03,28,7.90
2010,07,06,03,29,7.80
2010,07,06,03,30,7.80
2010,07,06,03,31,7.80
2010,07,06,03,32,7.80
2010,07,06,03,33,7.80
2010,07,06,03,34,7.80
2010,07,06,03,35,7.80
2010,07,06,03,36,7.80
2010,07,06,03,37,7.80
2010,07,06,03,38,7.70
2010,07,06,03,39,7.70
2010,07,06,03,40,7.70
2010,07,06,03,41,7.70
2010,07,06,03,42,7.70
2010,07,06,03,43,7.70
2010,07,06,03,44,7.60
2010,07,06,03,45,7.60
2010,07,06,03,46,7.60
2010,07,06,03,47,7.60
2010,07,06,03,48,7.60
2010,07,06,03,49,7.60
2010,07,06,03,50,7.50
2010,07,06,03,51,7.50
2010,07,06,03,52,7.50
2010,07,06,03,53,7.40
2010,07,06,03,54,7.40
2010,07,06,03,55,7.40
2010,07,06,03,56,7.40
2010,07,06,03,57,7.40
2010,07,06,03,58,7.40
2010,07,06,03,59,7.30
2010,07,06,04,00,7.30
2010,07,06,04,01,7.30
2010,07,06,04,02,7.30
2010,07,06,04,03,7.30
2010,07,06,04,04,7.30
2010,07,06,04,05,7.30
2010,07,06,04,06,7.30
2010,07,06,04,07,7.20
2010,07,06,04,08,7.20
2010,07,06,04,09,7.20
2010,07,06,04,10,7.20
2010,07,06,04,11,7.20
2010,07,06,04,12,7.20
2010,07,06,04,13,7.20
2010,07,06,04,14,7.20
2010,07,06,04,15,7.20
2010,07,06,04,16,7.20
2010,07,06,04,17,7.20
2010,07,06,04,18,7.10
2010,07,06,04,19,7.10
2010,07,06,04,20,7.10
2010,07,06,04,21,7.10
2010,07,06,04,22,7.10
2010,07,06,04,23,7.10
2010,07,06,04,24,7.10
2010,07,06,04,25,7.10
2010,07,06,04,26,7.10
2010,07,06,04,27,7.10
2010,07,06,04,28,7.10
2010,07,06,04,29,7.10
2010,07,06,04,30,7.10
2010,07,06,04,31,7.00
2010,07,06,04,32,7.00
2010,07,06,04,33,7.00
2010,07,06,04,34,7.00
2010,07,06,04,35,7.00
2010,07,06,04,36,6.90
2010,07,06,04,37,6.90
2010,07,06,04,38,6.90
2010,07,06,04,39,6.90
2010,07,06,04,40,6.90
2010,07,06,04,41,6.90
2010,07,06,04,42,6.90
2010,07,06,04,43,6.90
2010,07,06,04,44,6.90
2010,07,06,04,45,6.80
2010,07,06,04,46,6.80
2010,07,06,04,47,6.80
2010,07,06,04,48,6.80
2010,07,06,04,49,6.80
2010,07,06,04,50,6.80
2010,07,06,04,51,6.80
2010,07,06,04,52,6.80
2010,07,06,04,53,6.80
2010,07,06,04,54,6.80
2010,07,06,04,55,6.80
2010,07,06,04,56,6.80
2010,07,06,04,57,6.80
2010,07,06,04,58,6.80
2010,07,06,04,59,6.70
2010,07,06,05,00,6.70
2010,07,06,05,01,6.70
2010,07,06,05,02,6.70
2010,07,06,05,03,6.70
2010,07,06,05,04,6.70
2010,07,06,05,05,6.70
2010,07,06,05,06,6.70
2010,07,06,05,07,6.70
2010,07,06,05,08,6.70
2010,07,06,05,09,6.60
2010,07,06,05,10,6.60
2010,07,06,05,11,6.60
2010,07,06,05,12,6.60
2010,07,06,05,13,6.60
2010,07,06,05,14,6.60
2010,07,06,05,15,6.60
2010,07,06,05,16,6.60
2010,07,06,05,17,6.60
2010,07,06,05,18,6.60
2010,07,06,05,19,6.60
2010,07,06,05,20,6.60
2010,07,06,05,21,6.50
2010,07,06,05,22,6.50
2010,07,06,05,23,6.50
2010,07,06,05,24,6.50
2010,07,06,05,25,6.50
2010,07,06,05,26,6.50
2010,07,06,05,27,6.40
2010,07,06,05,28,6.40
2010,07,06,05,29,6.40
2010,07,06,05,30,6.40
2010,07,06,05,31,6.40
2010,07,06,05,32,6.40
2010,07,06,05,33,6.40
2010,07,06,05,34,6.40
2010,07,06,05,35,6.40
2010,07,06,05,36,6.40
2010,07,06,05,37,6.40
2010,07,06,05,38,6.40
2010,07,06,05,39,6.40
2010,07,06,05,40,6.40
2010,07,06,05,41,6.40
2010,07,06,05,42,6.40
2010,07,06,05,43,6.40
2010,07,06,05,44,6.40
2010,07,06,05,45,6.40
2010,07,06,05,46,6.40
2010,07,06,05,47,6.40
2010,07,06,05,48,6.40
2010,07,06,05,49,6.40
2010,07,06,05,50,6.40
2010,07,06,05,51,6.40
2010,07,06,05,52,6.40
2010,07,06,05,53,6.40
2010,07,06,05,54,6.40
2010,07,06,05,55,6.40
2010,07,06,05,56,6.40
2010,07,06,05,57,6.40
2010,07,06,05,58,6.40
2010,07,06,05,59,6.30
2010,07,06,06,00,6.30
2010,07,06,06,01,6.30
2010,07,06,06,02,6.30
2010,07,06,06,03,6.30
2010,07,06,06,04,6.30
2010,07,06,06,05,6.30
2010,07,06,06,06,6.30
2010,07,06,06,07,6.30
2010,07,06,06,08,6.30
2010,07,06,06,09,6.30
2010,07,06,06,10,6.30
2010,07,06,06,11,6.30
2010,07,06,06,12,6.30
2010,07,06,06,13,6.30
2010,07,06,06,14,6.30
2010,07,06,06,15,6.30
2010,07,06,06,16,6.30
2010,07,06,06,17,6.30
2010,07,06,06,18,6.30
2010,07,06,06,19,6.30
2010,07,06,06,20,6.30
2010,07,06,06,21,6.30
2010,07,06,06,22,6.30
2010,07,06,06,23,6.30
2010,07,06,06,24,6.30
2010,07,06,06,25,6.30
2010,07,06,06,26,6.30
2010,07,06,06,27,6.30
2010,07,06,06,28,6.30
2010,07,06,06,29,6.30
2010,07,06,06,30,6.30
2010,07,06,06,31,6.30
2010,07,06,06,32,6.30
2010,07,06,06,33,6.30
2010,07,06,06,34,6.30
2010,07,06,06,35,6.40
2010,07,06,06,36,6.40
2010,07,06,06,37,6.40
2010,07,06,06,38,6.40
2010,07,06,06,39,6.40
2010,07,06,06,40,6.40
2010,07,06,06,41,6.40
2010,07,06,06,42,6.40
2010,07,06,06,43,6.40
2010,07,06,06,44,6.40
2010,07,06,06,45,6.40
2010,07,06,06,46,6.40
2010,07,06,06,47,6.40
2010,07,06,06,48,6.40
2010,07,06,06,49,6.50
2010,07,06,06,50,6.50
2010,07,06,06,51,6.50
2010,07,06,06,52,6.50
2010,07,06,06,53,6.50
2010,07,06,06,54,6.60
2010,07,06,06,55,6.60
2010,07,06,06,56,6.60
2010,07,06,06,57,6.60
2010,07,06,06,58,6.60
2010,07,06,06,59,6.60
2010,07,06,07,00,6.70
2010,07,06,07,01,6.70
2010,07,06,07,02,6.70
2010,07,06,07,03,6.80
2010,07,06,07,04,6.80
2010,07,06,07,05,6.80
2010,07,06,07,06,6.80
2010,07,06,07,07,6.90
2010,07,06,07,08,6.90
2010,07,06,07,09,6.90
2010,07,06,07,10,7.00
2010,07,06,07,11,7.00
2010,07,06,07,12,7.00
2010,07,06,07,13,7.10
2010,07,06,07,14,7.20
2010,07,06,07,15,7.20
2010,07,06,07,16,7.30
2010,07,06,07,17,7.40
2010,07,06,07,18,7.50
2010,07,06,07,19,7.60
2010,07,06,07,20,7.70
2010,07,06,07,21,7.90
2010,07,06,07,22,8.00
2010,07,06,07,23,8.10
2010,07,06,07,24,8.30
2010,07,06,07,25,8.40
2010,07,06,07,26,8.60
2010,07,06,07,27,8.70
2010,07,06,07,28,8.90
2010,07,06,07,29,9.00
2010,07,06,07,30,9.10
2010,07,06,07,31,9.10
2010,07,06,07,32,9.10
2010,07,06,07,33,9.20
2010,07,06,07,34,9.20
2010,07,06,07,35,9.30
2010,07,06,07,36,9.40
2010,07,06,07,37,9.50
2010,07,06,07,38,9.60
2010,07,06,07,39,9.60
2010,07,06,07,40,9.70
2010,07,06,07,41,9.70
2010,07,06,07,42,9.80
2010,07,06,07,43,9.80
2010,07,06,07,44,9.80
2010,07,06,07,45,9.90
2010,07,06,07,46,9.90
2010,07,06,07,47,10.00
2010,07,06,07,48,10.00
2010,07,06,07,49,10.10
2010,07,06,07,50,10.20
2010,07,06,07,51,10.30
2010,07,06,07,52,10.40
2010,07,06,07,53,10.40
2010,07,06,07,54,10.50
2010,07,06,07,55,10.50
2010,07,06,07,56,10.60
2010,07,06,07,57,10.70
2010,07,06,07,58,10.80
2010,07,06,07,59,10.90
2010,07,06,08,00,11.00
2010,07,06,08,01,11.20
2010,07,06,08,02,11.30
2010,07,06,08,03,11.40
2010,07,06,08,04,11.50
2010,07,06,08,05,11.60
2010,07,06,08,06,11.70
2010,07,06,08,07,11.80
2010,07,06,08,08,11.80
2010,07,06,08,09,11.90
2010,07,06,08,10,12.00
2010,07,06,08,11,12.10
2010,07,06,08,12,12.20
2010,07,06,08,13,12.30
2010,07,06,08,14,12.40
2010,07,06,08,15,12.50
2010,07,06,08,16,12.70
2010,07,06,08,17,12.80
2010,07,06,08,18,13.00
2010,07,06,08,19,13.10
2010,07,06,08,20,13.20
2010,07,06,08,21,13.40
2010,07,06,08,22,13.50
2010,07,06,08,23,13.60
2010,07,06,08,24,13.70
2010,07,06,08,25,13.80
2010,07,06,08,26,13.90
2010,07,06,08,27,14.00
2010,07,06,08,28,14.10
2010,07,06,08,29,14.20
2010,07,06,08,30,14.30
2010,07,06,08,31,14.30
2010,07,06,08,32,14.40
2010,07,06,08,33,14.50
2010,07,06,08,34,14.60
2010,07,06,08,35,14.70
2010,07,06,08,36,14.70
2010,07,06,08,37,14.70
2010,07,06,08,38,14.70
2010,07,06,08,39,14.60
2010,07,06,08,40,14.70
2010,07,06,08,41,14.70
2010,07,06,08,42,14.70
2010,07,06,08,43,14.60
2010,07,06,08,44,14.70
2010,07,06,08,45,14.70
2010,07,06,08,46,14.70
2010,07,06,08,47,14.70
2010,07,06,08,48,14.80
2010,07,06,08,49,14.90
2010,07,06,08,50,15.00
2010,07,06,08,51,15.00
2010,07,06,08,52,15.00
2010,07,06,08,53,15.00
2010,07,06,08,54,15.10
2010,07,06,08,55,15.10
2010,07,06,08,56,15.10
2010,07,06,08,57,15.20
2010,07,06,08,58,15.20
2010,07,06,08,59,15.20
2010,07,06,09,00,15.30
2010,07,06,09,01,15.30
2010,07,06,09,02,15.30
2010,07,06,09,03,15.30
2010,07,06,09,04,15.30
2010,07,06,09,05,15.40
2010,07,06,09,06,15.50
2010,07,06,09,07,15.50
2010,07,06,09,08,15.60
2010,07,06,09,09,15.60
2010,07,06,09,10,15.60
2010,07,06,09,11,15.60
2010,07,06,09,12,15.70
2010,07,06,09,13,15.70
2010,07,06,09,14,15.70
2010,07,06,09,15,15.70
2010,07,06,09,16,15.80
2010,07,06,09,17,15.80
2010,07,06,09,18,15.80
2010,07,06,09,19,15.90
2010,07,06,09,20,15.90
2010,07,06,09,21,16.00
2010,07,06,09,22,16.00
2010,07,06,09,23,16.10
2010,07,06,09,24,16.20
2010,07,06,09,25,16.30
2010,07,06,09,26,16.30
2010,07,06,09,27,16.30
2010,07,06,09,28,16.30
2010,07,06,09,29,16.30
2010,07,06,09,30,16.30
2010,07,06,09,31,16.30
2010,07,06,09,32,16.30
2010,07,06,09,33,16.30
2010,07,06,09,34,16.30
2010,07,06,09,35,16.30
2010,07,06,09,36,16.40
2010,07,06,09,37,16.50
2010,07,06,09,38,16.60
2010,07,06,09,39,16.70
2010,07,06,09,40,16.80
2010,07,06,09,41,16.80
2010,07,06,09,42,16.90
2010,07,06,09,43,17.00
2010,07,06,09,44,17.00
2010,07,06,09,45,17.00
2010,07,06,09,46,17.00
2010,07,06,09,47,17.00
2010,07,06,09,48,17.00
2010,07,06,09,49,16.90
2010,07,06,09,50,16.90
2010,07,06,09,51,17.00
2010,07,06,09,52,17.10
2010,07,06,09,53,17.10
2010,07,06,09,54,17.20
2010,07,06,09,55,17.30
2010,07,06,09,56,17.30
2010,07,06,09,57,17.40
2010,07,06,09,58,17.40
2010,07,06,09,59,17.40
2010,07,06,10,00,17.40
2010,07,06,10,01,17.50
2010,07,06,10,02,17.50
2010,07,06,10,03,17.60
2010,07,06,10,04,17.70
2010,07,06,10,05,17.80
2010,07,06,10,06,17.90
2010,07,06,10,07,17.90
2010,07,06,10,08,17.90
2010,07,06,10,09,17.90
2010,07,06,10,10,17.90
2010,07,06,10,11,17.90
2010,07,06,10,12,17.90
2010,07,06,10,13,17.90
2010,07,06,10,14,17.90
2010,07,06,10,15,18.00
2010,07,06,10,16,18.10
2010,07,06,10,17,18.10
2010,07,06,10,18,18.10
2010,07,06,10,19,18.20
2010,07,06,10,20,18.20
2010,07,06,10,21,18.30
2010,07,06,10,22,18.40
2010,07,06,10,23,18.40
2010,07,06,10,24,18.50
2010,07,06,10,25,18.60
2010,07,06,10,26,18.70
2010,07,06,10,27,18.70
2010,07,06,10,28,18.80
2010,07,06,10,29,19.00
2010,07,06,10,30,19.00
2010,07,06,10,31,19.00
2010,07,06,10,32,18.90
2010,07,06,10,33,18.90
2010,07,06,10,34,18.90
2010,07,06,10,35,18.90
2010,07,06,10,36,18.90
2010,07,06,10,37,19.00
2010,07,06,10,38,19.10
2010,07,06,10,39,19.20
2010,07,06,10,40,19.30
2010,07,06,10,41,19.30
2010,07,06,10,42,19.40
2010,07,06,10,43,19.50
2010,07,06,10,44,19.60
2010,07,06,10,45,19.60
2010,07,06,10,46,19.50
2010,07,06,10,47,19.50
2010,07,06,10,48,19.40
2010,07,06,10,49,19.40
2010,07,06,10,50,19.30
2010,07,06,10,51,19.30
2010,07,06,10,52,19.30
2010,07,06,10,53,19.30
2010,07,06,10,54,19.30
2010,07,06,10,55,19.40
2010,07,06,10,56,19.50
2010,07,06,10,57,19.60
2010,07,06,10,58,19.60
2010,07,06,10,59,19.70
2010,07,06,11,00,19.70
2010,07,06,11,01,19.80
2010,07,06,11,02,19.70
2010,07,06,11,03,19.60
2010,07,06,11,04,19.60
2010,07,06,11,05,19.60
2010,07,06,11,06,19.60
2010,07,06,11,07,19.70
2010,07,06,11,08,19.80
2010,07,06,11,09,19.90
2010,07,06,11,10,19.90
2010,07,06,11,11,20.00
2010,07,06,11,12,20.00
2010,07,06,11,13,20.20
2010,07,06,11,14,20.30
2010,07,06,11,15,20.40
2010,07,06,11,16,20.50
2010,07,06,11,17,20.50
2010,07,06,11,18,20.60
2010,07,06,11,19,20.50
2010,07,06,11,20,20.40
2010,07,06,11,21,20.40
2010,07,06,11,22,20.40
2010,07,06,11,23,20.40
2010,07,06,11,24,20.30
2010,07,06,11,25,20.30
2010,07,06,11,26,20.30
2010,07,06,11,27,20.30
2010,07,06,11,28,20.30
2010,07,06,11,29,20.40
2010,07,06,11,30,20.60
2010,07,06,11,31,20.70
2010,07,06,11,32,20.80
2010,07,06,11,33,20.80
2010,07,06,11,34,20.80
2010,07,06,11,35,20.80
2010,07,06,11,36,20.80
2010,07,06,11,37,20.80
2010,07,06,11,38,20.70
2010,07,06,11,39,20.70
2010,07,06,11,40,20.80
2010,07,06,11,41,20.80
2010,07,06,11,42,20.90
2010,07,06,11,43,21.00
2010,07,06,11,44,21.20
2010,07,06,11,45,21.40
2010,07,06,11,46,21.40
2010,07,06,11,47,21.50
2010,07,06,11,48,21.60
2010,07,06,11,49,21.60
2010,07,06,11,50,21.70
2010,07,06,11,51,21.70
2010,07,06,11,52,21.70
2010,07,06,11,53,21.70
2010,07,06,11,54,21.60
2010,07,06,11,55,21.60
2010,07,06,11,56,21.60
2010,07,06,11,57,21.60
2010,07,06,11,58,21.60
2010,07,06,11,59,21.70
2010,07,06,12,00,21.80
2010,07,06,12,01,21.80
2010,07,06,12,02,21.80
2010,07,06,12,03,21.80
2010,07,06,12,04,21.80
2010,07,06,12,05,21.70
2010,07,06,12,06,21.70
2010,07,06,12,07,21.70
2010,07,06,12,08,21.70
2010,07,06,12,09,21.70
2010,07,06,12,10,21.80
2010,07,06,12,11,21.80
2010,07,06,12,12,21.80
2010,07,06,12,13,21.90
2010,07,06,12,14,22.00
2010,07,06,12,15,22.10
2010,07,06,12,16,22.20
2010,07,06,12,17,22.30
2010,07,06,12,18,22.40
2010,07,06,12,19,22.40
2010,07,06,12,20,22.40
2010,07,06,12,21,22.40
2010,07,06,12,22,22.30
2010,07,06,12,23,22.40
2010,07,06,12,24,22.40
2010,07,06,12,25,22.50
2010,07,06,12,26,22.50
2010,07,06,12,27,22.50
2010,07,06,12,28,22.50
2010,07,06,12,29,22.50
2010,07,06,12,30,22.40
2010,07,06,12,31,22.40
2010,07,06,12,32,22.40
2010,07,06,12,33,22.40
2010,07,06,12,34,22.40
2010,07,06,12,35,22.40
2010,07,06,12,36,22.40
2010,07,06,12,37,22.40
2010,07,06,12,38,22.30
2010,07,06,12,39,22.30
2010,07,06,12,40,22.30
2010,07,06,12,41,22.40
2010,07,06,12,42,22.50
2010,07,06,12,43,22.60
2010,07,06,12,44,22.80
2010,07,06,12,45,22.90
2010,07,06,12,46,23.10
2010,07,06,12,47,23.30
2010,07,06,12,48,23.40
2010,07,06,12,49,23.60
2010,07,06,12,50,23.80
2010,07,06,12,51,23.80
2010,07,06,12,52,23.80
2010,07,06,12,53,23.70
2010,07,06,12,54,23.60
2010,07,06,12,55,23.60
2010,07,06,12,56,23.60
2010,07,06,12,57,23.60
2010,07,06,12,58,23.70
2010,07,06,12,59,23.70
2010,07,06,13,00,23.80
2010,07,06,13,01,23.90
2010,07,06,13,02,23.90
2010,07,06,13,03,23.80
2010,07,06,13,04,23.80
2010,07,06,13,05,23.80
2010,07,06,13,06,23.70
2010,07,06,13,07,23.70
2010,07,06,13,08,23.60
2010,07,06,13,09,23.60
2010,07,06,13,10,23.60
2010,07,06,13,11,23.60
2010,07,06,13,12,23.60
2010,07,06,13,13,23.70
2010,07,06,13,14,23.80
2010,07,06,13,15,23.80
2010,07,06,13,16,23.90
2010,07,06,13,17,24.00
2010,07,06,13,18,24.10
2010,07,06,13,19,24.10
2010,07,06,13,20,24.10
2010,07,06,13,21,24.00
2010,07,06,13,22,24.00
2010,07,06,13,23,23.90
2010,07,06,13,24,23.80
2010,07,06,13,25,23.80
2010,07,06,13,26,23.90
2010,07,06,13,27,23.90
2010,07,06,13,28,24.00
2010,07,06,13,29,24.10
2010,07,06,13,30,24.10
2010,07,06,13,31,24.10
2010,07,06,13,32,24.20
2010,07,06,13,33,24.20
2010,07,06,13,34,24.30
2010,07,06,13,35,24.30
2010,07,06,13,36,24.40
2010,07,06,13,37,24.40
2010,07,06,13,38,24.30
2010,07,06,13,39,24.20
2010,07,06,13,40,24.20
2010,07,06,13,41,24.30
2010,07,06,13,42,24.40
2010,07,06,13,43,24.50
2010,07,06,13,44,24.60
2010,07,06,13,45,24.80
2010,07,06,13,46,24.80
2010,07,06,13,47,24.90
2010,07,06,13,48,25.00
2010,07,06,13,49,25.00
2010,07,06,13,50,25.00
2010,07,06,13,51,24.90
2010,07,06,13,52,24.80
2010,07,06,13,53,24.80
2010,07,06,13,54,24.80
2010,07,06,13,55,24.80
2010,07,06,13,56,24.90
2010,07,06,13,57,24.90
2010,07,06,13,58,25.00
2010,07,06,13,59,25.20
2010,07,06,14,00,25.30
2010,07,06,14,01,25.40
2010,07,06,14,02,25.50
2010,07,06,14,03,25.50
2010,07,06,14,04,25.60
2010,07,06,14,05,25.50
2010,07,06,14,06,25.50
2010,07,06,14,07,25.40
2010,07,06,14,08,25.50
2010,07,06,14,09,25.50
2010,07,06,14,10,25.60
2010,07,06,14,11,25.70
2010,07,06,14,12,25.80
2010,07,06,14,13,25.90
2010,07,06,14,14,25.80
2010,07,06,14,15,25.60
2010,07,06,14,16,25.40
2010,07,06,14,17,25.30
2010,07,06,14,18,25.20
2010,07,06,14,19,25.10
2010,07,06,14,20,25.10
2010,07,06,14,21,25.00
2010,07,06,14,22,24.90
2010,07,06,14,23,24.90
2010,07,06,14,24,25.00
2010,07,06,14,25,24.90
2010,07,06,14,26,24.90
2010,07,06,14,27,24.80
2010,07,06,14,28,24.80
2010,07,06,14,29,24.80
2010,07,06,14,30,24.80
2010,07,06,14,31,24.90
2010,07,06,14,32,24.90
2010,07,06,14,33,24.90
2010,07,06,14,34,25.00
2010,07,06,14,35,25.00
2010,07,06,14,36,25.10
2010,07,06,14,37,25.10
2010,07,06,14,38,25.20
2010,07,06,14,39,25.30
2010,07,06,14,40,25.30
2010,07,06,14,41,25.40
2010,07,06,14,42,25.50
2010,07,06,14,43,25.50
2010,07,06,14,44,25.50
2010,07,06,14,45,25.50
2010,07,06,14,46,25.50
2010,07,06,14,47,25.50
2010,07,06,14,48,25.60
2010,07,06,14,49,25.70
2010,07,06,14,50,25.90
2010,07,06,14,51,25.90
2010,07,06,14,52,25.90
2010,07,06,14,53,25.90
2010,07,06,14,54,25.90
2010,07,06,14,55,25.90
2010,07,06,14,56,25.90
2010,07,06,14,57,25.90
2010,07,06,14,58,25.80
2010,07,06,14,59,25.70
2010,07,06,15,00,25.60
2010,07,06,15,01,25.50
2010,07,06,15,02,25.40
2010,07,06,15,03,25.40
2010,07,06,15,04,25.30
2010,07,06,15,05,25.30
2010,07,06,15,06,25.40
2010,07,06,15,07,25.50
2010,07,06,15,08,25.60
2010,07,06,15,09,25.70
2010,07,06,15,10,25.70
2010,07,06,15,11,25.60
2010,07,06,15,12,25.50
2010,07,06,15,13,25.50
2010,07,06,15,14,25.50
2010,07,06,15,15,25.50
2010,07,06,15,16,25.40
2010,07,06,15,17,25.40
2010,07,06,15,18,25.40
2010,07,06,15,19,25.40
2010,07,06,15,20,25.40
2010,07,06,15,21,25.50
2010,07,06,15,22,25.50
2010,07,06,15,23,25.60
2010,07,06,15,24,25.60
2010,07,06,15,25,25.60
2010,07,06,15,26,25.60
2010,07,06,15,27,25.70
2010,07,06,15,28,25.70
2010,07,06,15,29,25.70
2010,07,06,15,30,25.70
2010,07,06,15,31,25.70
2010,07,06,15,32,25.70
2010,07,06,15,33,25.70
2010,07,06,15,34,25.70
2010,07,06,15,35,25.70
2010,07,06,15,36,25.70
2010,07,06,15,37,25.80
2010,07,06,15,38,25.80
2010,07,06,15,39,25.80
2010,07,06,15,40,25.80
2010,07,06,15,41,25.80
2010,07,06,15,42,25.80
2010,07,06,15,43,25.90
2010,07,06,15,44,25.90
2010,07,06,15,45,25.90
2010,07,06,15,46,26.00
2010,07,06,15,47,26.10
2010,07,06,15,48,26.00
2010,07,06,15,49,25.90
2010,07,06,15,50,25.80
2010,07,06,15,51,25.80
2010,07,06,15,52,25.80
2010,07,06,15,53,25.80
2010,07,06,15,54,25.90
2010,07,06,15,55,25.90
2010,07,06,15,56,25.90
2010,07,06,15,57,25.90
2010,07,06,15,58,26.00
2010,07,06,15,59,26.10
2010,07,06,16,00,26.10
2010,07,06,16,01,26.20
2010,07,06,16,02,26.10
2010,07,06,16,03,26.10
2010,07,06,16,04,26.10
2010,07,06,16,05,26.10
2010,07,06,16,06,26.10
2010,07,06,16,07,26.00
2010,07,06,16,08,26.00
2010,07,06,16,09,25.90
2010,07,06,16,10,25.90
2010,07,06,16,11,25.90
2010,07,06,16,12,25.90
2010,07,06,16,13,25.90
2010,07,06,16,14,25.90
2010,07,06,16,15,25.90
2010,07,06,16,16,25.90
2010,07,06,16,17,25.90
2010,07,06,16,18,25.90
2010,07,06,16,19,25.90
2010,07,06,16,20,25.90
2010,07,06,16,21,25.90
2010,07,06,16,22,25.90
2010,07,06,16,23,25.70
2010,07,06,16,24,25.70
2010,07,06,16,25,25.60
2010,07,06,16,26,25.60
2010,07,06,16,27,25.60
2010,07,06,16,28,25.60
2010,07,06,16,29,25.70
2010,07,06,16,30,25.70
2010,07,06,16,31,25.70
2010,07,06,16,32,25.70
2010,07,06,16,33,25.70
2010,07,06,16,34,25.60
2010,07,06,16,35,25.60
2010,07,06,16,36,25.60
2010,07,06,16,37,25.60
2010,07,06,16,38,25.60
2010,07,06,16,39,25.60
2010,07,06,16,40,25.60
2010,07,06,16,41,25.60
2010,07,06,16,42,25.60
2010,07,06,16,43,25.70
2010,07,06,16,44,25.70
2010,07,06,16,45,25.80
2010,07,06,16,46,25.80
2010,07,06,16,47,25.90
2010,07,06,16,48,25.90
2010,07,06,16,49,25.90
2010,07,06,16,50,26.00
2010,07,06,16,51,26.00
2010,07,06,16,52,26.00
2010,07,06,16,53,26.00
2010,07,06,16,54,26.10
2010,07,06,16,55,26.10
2010,07,06,16,56,26.10
2010,07,06,16,57,26.10
2010,07,06,16,58,26.10
2010,07,06,16,59,26.00
2010,07,06,17,00,26.00
2010,07,06,17,01,25.90
2010,07,06,17,02,25.90
2010,07,06,17,03,25.90
2010,07,06,17,04,25.90
2010,07,06,17,05,25.90
2010,07,06,17,06,25.90
2010,07,06,17,07,25.90
2010,07,06,17,08,25.90
2010,07,06,17,09,25.90
2010,07,06,17,10,25.90
2010,07,06,17,11,25.90
2010,07,06,17,12,25.90
2010,07,06,17,13,25.90
2010,07,06,17,14,25.90
2010,07,06,17,15,25.90
2010,07,06,17,16,25.90
2010,07,06,17,17,25.90
2010,07,06,17,18,25.90
2010,07,06,17,19,25.90
2010,07,06,17,20,25.90
2010,07,06,17,21,25.90
2010,07,06,17,22,25.90
2010,07,06,17,23,25.90
2010,07,06,17,24,25.90
2010,07,06,17,25,25.90
2010,07,06,17,26,25.90
2010,07,06,17,27,25.90
2010,07,06,17,28,25.90
2010,07,06,17,29,25.90
2010,07,06,17,30,26.00
2010,07,06,17,31,26.10
2010,07,06,17,32,26.10
2010,07,06,17,33,26.10
2010,07,06,17,34,26.10
2010,07,06,17,35,26.10
2010,07,06,17,36,26.00